VK3ANZ Weather Reports


Display with metric or nautical units.
time (UTC)temp
F
wind
direction
speed
MPH
gust
MPH
rain 1hr
in
rain 24hr
in
rain mn
in
humidity
%
barometer
mb
20260510203600 47 0.0 0.0 0.00 0.00 0.00 86 1033.8
20260510202528 47 0.0 0.0 0.00 0.00 0.00 86 1033.6
20260510201519 47 0.0 0.0 0.00 0.00 0.00 86 1033.6
20260510200527 47 0.0 0.0 0.00 0.00 0.00 86 1033.4
20260510195520 46 0.0 0.0 0.00 0.00 0.00 86 1033.4
20260510194527 46 0.0 0.0 0.00 0.00 0.00 86 1033.3
20260510193524 46 0.0 0.0 0.00 0.00 0.00 86 1033.2
20260510192528 46 0.0 0.0 0.00 0.00 0.00 86 1033.2
20260510191540 45 0.0 0.0 0.00 0.00 0.00 86 1033.1
20260510185523 45 0.0 0.0 0.00 0.00 0.00 87 1032.9
20260510184607 45 0.0 0.0 0.00 0.00 0.00 87 1032.8
20260510183539 45 0.0 0.0 0.00 0.00 0.00 87 1032.7
20260510182547 44 0.0 0.0 0.00 0.00 0.00 87 1032.7
20260510181519 44 0.0 0.0 0.00 0.00 0.00 86 1032.6
20260510180540 44 0.0 0.0 0.00 0.00 0.00 86 1032.5
20260510175521 43 0.0 0.0 0.00 0.00 0.00 87 1032.4
20260510174548 43 0.0 0.0 0.00 0.00 0.00 87 1032.4
20260510173520 43 0.0 0.0 0.00 0.00 0.00 87 1032.3
20260510172528 43 0.0 0.0 0.00 0.00 0.00 87 1032.4
20260510171519 43 0.0 0.0 0.00 0.00 0.00 87 1032.2
20260510170538 43 0.0 0.0 0.00 0.00 0.00 87 1032.4
20260510165520 43 0.0 0.0 0.00 0.00 0.00 87 1032.3
20260510164526 44 0.0 0.0 0.00 0.00 0.00 87 1032.4
20260510163527 44 0.0 0.0 0.00 0.00 0.00 87 1032.4
20260510162528 43 0.0 0.0 0.00 0.00 0.00 87 1032.4
20260510161611 43 0.0 0.0 0.00 0.00 0.00 87 1032.6
20260510160526 43 0.0 0.0 0.00 0.00 0.00 87 1032.5
20260510155519 43 0.0 0.0 0.00 0.00 0.00 86 1032.5
20260510154539 43 0.0 0.0 0.00 0.00 0.00 87 1032.6
20260510153519 43 0.0 0.0 0.00 0.00 0.00 87 1032.5
20260510152527 43 0.0 0.0 0.00 0.00 0.00 86 1032.5
20260510151519 43 0.0 0.0 0.00 0.00 0.00 86 1032.4
20260510150610 44 0.0 0.0 0.00 0.00 0.00 86 1032.4
20260510145529 44 0.0 0.0 0.00 0.00 0.00 86 1032.5
20260510144527 44 0.0 0.0 0.00 0.00 0.00 86 1032.5
20260510143519 44 0.0 0.0 0.00 0.00 0.00 86 1032.4
20260510142526 44 0.0 0.0 0.00 0.00 0.00 86 1032.5
20260510141519 44 0.0 0.0 0.00 0.00 0.00 86 1032.5
20260510140548 45 0.0 0.0 0.00 0.00 0.00 85 1032.5
20260510135524 45 0.0 0.0 0.00 0.00 0.00 84 1032.5
20260510134521 45 0.0 0.0 0.00 0.00 0.00 84 1032.4
20260510133518 45 0.0 0.0 0.00 0.00 0.00 85 1032.5
20260510132526 45 0.0 0.0 0.00 0.00 0.00 84 1032.5
20260510131520 45 0.0 0.0 0.00 0.00 0.00 84 1032.5
20260510130522 45 0.0 0.0 0.00 0.00 0.00 83 1032.5
20260510125520 46 0.0 0.0 0.00 0.00 0.00 82 1032.6
20260510124526 46 0.0 0.0 0.00 0.00 0.00 83 1032.6
20260510123640 46 0.0 0.0 0.00 0.00 0.00 83 1032.6
20260510122607 46 0.0 0.0 0.00 0.00 0.00 83 1032.6
20260510121517 46 0.0 0.0 0.00 0.00 0.00 83 1032.6
20260510120523 47 0.0 0.0 0.00 0.00 0.00 82 1032.7
20260510115519 47 0.0 0.0 0.00 0.00 0.00 83 1032.6
20260510114541 47 0.0 0.0 0.00 0.00 0.00 83 1032.5
20260510113518 47 0.0 0.0 0.00 0.00 0.00 83 1032.4
20260510112526 48 0.0 0.0 0.00 0.00 0.00 83 1032.4
20260510111518 48 0.0 0.0 0.00 0.00 0.00 83 1032.2
20260510110527 48 0.0 0.0 0.00 0.00 0.00 82 1032.2
20260510105530 48 0.0 0.0 0.00 0.00 0.00 82 1032.1
20260510104516 48 0.0 0.0 0.00 0.00 0.00 81 1032.1
20260510103518 48 0.0 0.0 0.00 0.00 0.00 81 1032.0
20260510102546 48 0.0 0.0 0.00 0.00 0.00 81 1032.1
20260510101521 49 0.0 0.0 0.00 0.00 0.00 77 1032.1
20260510100525 49 0.0 0.0 0.00 0.00 0.00 75 1032.0
20260510095639 49 0.0 0.0 0.00 0.00 0.00 74 1032.1
20260510094526 49 0.0 0.0 0.00 0.00 0.00 73 1032.0
20260510093518 49 0.0 0.0 0.00 0.00 0.00 69 1031.9
20260510092526 49 0.0 0.0 0.00 0.00 0.00 58 1031.6
20260510091524 50 0.0 0.0 0.00 0.00 0.00 52 1031.8
20260510090526 50 0.0 0.0 0.00 0.00 0.00 50 1031.7
20260510085518 50 0.0 0.0 0.00 0.00 0.00 46 1031.7
20260510084525 51 0.0 0.0 0.00 0.00 0.00 45 1031.5
20260510083540 51 0.0 0.0 0.00 0.00 0.00 43 1031.4
20260510082527 52 0.0 0.0 0.00 0.00 0.00 40 1031.3
20260510081517 53 0.0 0.0 0.00 0.00 0.00 40 1031.4
20260510080525 53 0.0 0.0 0.00 0.00 0.00 36 1031.2
20260510075518 54 0.0 0.0 0.00 0.00 0.00 34 1031.1
20260510074525 55 0.0 0.0 0.00 0.00 0.00 32 1031.0
20260510073528 56 0.0 0.0 0.00 0.00 0.00 31 1031.0
20260510072525 57 0.0 0.0 0.00 0.00 0.00 31 1030.9
20260510071518 58 0.0 0.0 0.00 0.00 0.00 30 1030.8
20260510070541 59 0.0 0.0 0.00 0.00 0.00 28 1030.8
20260510065518 59 141 0.0 2.0 0.00 0.00 0.00 27 1030.7
20260510064605 60 0.0 0.0 0.00 0.00 0.00 26 1030.7
20260510063518 61 0.0 0.0 0.00 0.00 0.00 25 1030.7
20260510062531 62 0.0 0.0 0.00 0.00 0.00 23 1030.6
20260510061527 62 0.0 0.0 0.00 0.00 0.00 22 1030.6
20260510060525 61 0.0 0.0 0.00 0.00 0.00 22 1030.6
20260510055517 61 0.0 0.0 0.00 0.00 0.00 23 1030.6
20260510054525 61 0.0 0.0 0.00 0.00 0.00 23 1030.5
20260510053517 62 0.0 0.0 0.00 0.00 0.00 23 1030.5
20260510052525 63 0.0 0.0 0.00 0.00 0.00 23 1030.4
20260510051543 64 183 0.0 7.0 0.00 0.00 0.00 22 1030.6
20260510050525 63 154 0.0 10.0 0.00 0.00 0.00 22 1030.4
20260510045517 63 8 1.0 7.0 0.00 0.00 0.00 22 1030.4
20260510044525 63 229 0.0 2.0 0.00 0.00 0.00 21 1030.6
20260510043517 62 247 2.0 7.0 0.00 0.00 0.00 22 1030.5
20260510042517 61 0.0 0.0 0.00 0.00 0.00 21 1030.5
20260510041518 61 341 0.0 2.0 0.00 0.00 0.00 22 1030.7
20260510040525 60 151 0.0 2.0 0.00 0.00 0.00 25 1030.6
20260510035517 60 172 1.0 5.0 0.00 0.00 0.00 25 1030.8
20260510034545 60 0.0 0.0 0.00 0.00 0.00 25 1030.7
20260510033517 59 0.0 0.0 0.00 0.00 0.00 27 1030.9
20260510032545 59 101 1.0 5.0 0.00 0.00 0.00 28 1030.6
20260510031526 59 161 0.0 5.0 0.00 0.00 0.00 28 1030.9
20260510030526 59 0.0 0.0 0.00 0.00 0.00 29 1031.0
20260510025537 59 194 0.0 2.0 0.00 0.00 0.00 30 1031.0
20260510024525 60 149 1.0 5.0 0.00 0.00 0.00 30 1031.2
20260510023517 60 0.0 0.0 0.00 0.00 0.00 29 1031.3
20260510022545 60 164 0.0 5.0 0.00 0.00 0.00 30 1031.5
20260510021516 60 0.0 0.0 0.00 0.00 0.00 30 1031.5
20260510020525 60 0.0 0.0 0.00 0.00 0.00 30 1031.6
20260510015517 60 174 1.0 5.0 0.00 0.00 0.00 30 1031.9
20260510014525 59 0.0 0.0 0.00 0.00 0.00 30 1031.9
20260510013517 59 133 1.0 7.0 0.00 0.00 0.00 30 1032.0
20260510012517 59 0.0 0.0 0.00 0.00 0.00 30 1032.1
20260510011516 59 101 0.0 2.0 0.00 0.00 0.00 31 1032.1
20260510010525 59 188 1.0 5.0 0.00 0.00 0.00 31 1032.1
20260510005537 59 0.0 0.0 0.00 0.00 0.00 31 1032.1
20260510004524 59 126 0.0 2.0 0.00 0.00 0.00 31 1032.0
20260510003516 58 0.0 0.0 0.00 0.00 0.00 31 1032.1
20260510002544 58 0.0 0.0 0.00 0.00 0.00 32 1032.1
20260510001517 58 270 0.0 2.0 0.00 0.00 0.00 32 1032.1
20260510000525 58 169 1.0 5.0 0.00 0.00 0.00 33 1032.1
20260509235516 58 0.0 0.0 0.00 0.00 0.00 33 1032.0
20260509234525 57 126 0.0 7.0 0.00 0.00 0.00 35 1032.1
20260509233517 57 0.0 0.0 0.00 0.00 0.00 37 1032.0
20260509232526 57 0.0 0.0 0.00 0.00 0.00 40 1032.0
20260509231536 57 0.0 0.0 0.00 0.00 0.00 42 1032.0
20260509230524 56 0.0 0.0 0.00 0.00 0.00 45 1032.0
20260509225517 56 0.0 0.0 0.00 0.00 0.00 49 1031.9
20260509224525 55 0.0 0.0 0.00 0.00 0.00 52 1031.8
20260509223537 55 0.0 0.0 0.00 0.00 0.00 53 1031.8
20260509221516 55 0.0 0.0 0.00 0.00 0.00 59 1031.6
20260509220525 55 0.0 0.0 0.00 0.00 0.00 63 1031.3
20260509215536 54 0.0 0.0 0.00 0.00 0.00 62 1031.2
20260509214524 54 0.0 0.0 0.00 0.00 0.00 62 1031.1
20260509213516 54 0.0 0.0 0.00 0.00 0.00 61 1030.9
20260509212524 54 0.0 0.0 0.00 0.00 0.00 60 1030.8
20260509211516 54 0.0 0.0 0.00 0.00 0.00 59 1030.8
20260509210524 54 0.0 0.0 0.00 0.00 0.00 58 1030.7
20260509205516 54 0.0 0.0 0.00 0.00 0.00 58 1030.5
20260509204518 54 0.0 0.0 0.00 0.00 0.00 58 1030.4